DW8199 Weather Reports


Display with metric or nautical units.
time (UTC)temp
F
wind
direction
speed
MPH
gust
MPH
rain 1hr
in
rain 24hr
in
rain mn
in
humidity
%
barometer
mb
20260507195556 59 292 4.0 9.0 0.00 0.00 0.00 47 1011.8
20260507194536 59 290 2.0 5.0 0.00 0.00 0.00 46 1011.8
20260507193516 59 281 2.0 6.0 0.00 0.00 0.00 45 1011.9
20260507192516 60 298 4.0 9.0 0.00 0.00 0.00 44 1012.0
20260507191536 59 288 3.0 6.0 0.00 0.00 0.00 46 1012.1
20260507190516 60 286 5.0 10.0 0.00 0.00 0.00 44 1012.2
20260507185516 60 292 3.0 8.0 0.00 0.00 0.00 41 1012.2
20260507184516 61 296 4.0 10.0 0.00 0.00 0.00 40 1012.1
20260507183516 61 261 3.0 8.0 0.00 0.00 0.00 44 1012.2
20260507182516 60 256 2.0 9.0 0.00 0.00 0.00 44 1012.2
20260507181516 60 239 4.0 11.0 0.00 0.00 0.00 44 1012.3
20260507180516 60 243 3.0 8.0 0.00 0.00 0.00 43 1012.4
20260507175516 60 286 4.0 11.0 0.00 0.00 0.00 45 1012.6
20260507174516 60 256 2.0 9.0 0.00 0.00 0.00 44 1012.7
20260507173516 59 276 3.0 10.0 0.00 0.00 0.00 42 1012.8
20260507172516 59 286 4.0 10.0 0.00 0.00 0.00 46 1012.9
20260507171536 59 292 3.0 9.0 0.00 0.00 0.00 44 1013.0
20260507170516 59 246 2.0 8.0 0.00 0.00 0.00 44 1013.1
20260507165516 59 225 3.0 9.0 0.00 0.00 0.00 45 1013.2
20260507164516 59 283 3.0 8.0 0.00 0.00 0.00 45 1013.2
20260507163516 58 227 4.0 9.0 0.00 0.00 0.00 45 1013.2
20260507162516 58 268 4.0 8.0 0.00 0.00 0.00 46 1013.2
20260507161516 57 297 4.0 7.0 0.00 0.00 0.00 46 1013.1
20260507160515 57 292 4.0 7.0 0.00 0.00 0.00 45 1013.2
20260507155516 57 244 3.0 9.0 0.00 0.00 0.00 46 1013.3
20260507154516 57 292 4.0 9.0 0.00 0.00 0.00 46 1013.3
20260507153515 56 240 3.0 6.0 0.00 0.00 0.00 49 1013.3
20260507152516 56 296 3.0 7.0 0.00 0.00 0.00 50 1013.4
20260507151536 56 242 3.0 7.0 0.00 0.00 0.00 49 1013.5
20260507150516 55 274 3.0 7.0 0.00 0.00 0.00 53 1013.6
20260507145515 55 287 2.0 6.0 0.00 0.00 0.00 56 1013.6
20260507144516 54 272 2.0 4.0 0.00 0.00 0.00 58 1013.7
20260507143516 54 307 3.0 7.0 0.00 0.00 0.00 55 1013.7
20260507142515 54 291 3.0 7.0 0.00 0.00 0.00 59 1013.7
20260507141516 53 281 2.0 6.0 0.00 0.00 0.00 61 1013.9
20260507140516 53 253 2.0 5.0 0.00 0.00 0.00 63 1014.0
20260507135515 52 290 2.0 5.0 0.00 0.00 0.00 62 1014.1
20260507134515 51 284 2.0 7.0 0.00 0.00 0.00 65 1014.2
20260507133515 51 297 2.0 4.0 0.00 0.00 0.00 68 1014.2
20260507132516 49 267 2.0 5.0 0.00 0.00 0.00 78 1014.1
20260507131516 48 142 0.0 1.0 0.00 0.00 0.00 87 1014.2
20260507130516 47 269 0.0 1.0 0.00 0.00 0.00 88 1014.2
20260507125515 46 91 0.0 1.0 0.00 0.00 0.00 89 1014.2
20260507124516 45 318 0.0 1.0 0.00 0.00 0.00 90 1014.1
20260507123516 44 281 0.0 1.0 0.00 0.01 0.00 90 1014.2
20260507122516 43 0.0 0.0 0.00 0.01 0.00 91 1014.1
20260507121516 42 0.0 0.0 0.00 0.01 0.00 91 1014.2
20260507120515 40 0.0 0.0 0.00 0.01 0.00 91 1014.1
20260507115516 39 0.0 0.0 0.00 0.01 0.00 90 1014.0
20260507114515 39 0.0 0.0 0.00 0.01 0.00 90 1014.0
20260507113515 38 0.0 0.0 0.00 0.02 0.00 90 1013.9
20260507112516 37 0.0 0.0 0.00 0.02 0.00 90 1013.8
20260507111515 37 0.0 0.0 0.00 0.03 0.00 90 1013.8
20260507110515 37 0.0 0.0 0.00 0.03 0.00 90 1013.7
20260507105515 37 0.0 0.0 0.00 0.03 0.00 90 1013.7
20260507104556 37 0.0 0.0 0.00 0.03 0.00 90 1013.7
20260507103515 37 0.0 0.0 0.00 0.03 0.00 89 1013.7
20260507102516 37 0.0 0.0 0.00 0.03 0.00 89 1013.6
20260507101536 37 0.0 0.0 0.00 0.03 0.00 89 1013.6
20260507100515 37 0.0 0.0 0.00 0.03 0.00 89 1013.4
20260507095515 37 0.0 0.0 0.00 0.03 0.00 89 1013.5
20260507094515 37 0.0 0.0 0.00 0.04 0.00 89 1013.5
20260507093515 38 0.0 0.0 0.00 0.05 0.00 89 1013.5
20260507092515 38 0.0 0.0 0.00 0.06 0.00 89 1013.5
20260507091516 38 0.0 0.0 0.00 0.08 0.00 89 1013.6
20260507090516 38 0.0 0.0 0.00 0.10 0.00 89 1013.6
20260507085536 38 0.0 0.0 0.00 0.12 0.00 89 1013.7
20260507084515 38 0.0 0.0 0.00 0.12 0.00 88 1013.6
20260507083515 39 0.0 0.0 0.00 0.12 0.00 88 1013.7
20260507082515 39 0.0 0.0 0.00 0.13 0.00 88 1013.7
20260507081535 39 0.0 0.0 0.00 0.15 0.00 88 1013.8
20260507080515 39 0.0 0.0 0.00 0.16 0.00 88 1013.8
20260507075515 40 0.0 0.0 0.00 0.19 0.00 88 1013.9
20260507074515 40 0.0 0.0 0.00 0.22 0.00 88 1013.7
20260507073516 40 0.0 0.0 0.00 0.25 0.00 88 1013.7
20260507072515 41 0.0 0.0 0.00 0.27 0.00 87 1013.7
20260507071515 41 0.0 0.0 0.00 0.28 0.00 87 1013.7
20260507070515 41 0.0 0.0 0.00 0.29 0.00 87 1013.6
20260507065515 42 0.0 0.0 0.00 0.31 0.00 87 1013.7
20260507064515 42 0.0 0.0 0.00 0.33 0.00 87 1013.7
20260507063515 42 0.0 0.0 0.00 0.34 0.00 87 1013.8
20260507062515 43 0.0 0.0 0.00 0.34 0.00 86 1014.0
20260507061515 43 0.0 0.0 0.00 0.36 0.00 86 1014.1
20260507060515 43 0.0 0.0 0.00 0.38 0.00 85 1014.1
20260507055515 44 0.0 0.0 0.00 0.38 0.00 84 1014.2
20260507054535 44 0.0 0.0 0.00 0.38 0.00 83 1014.3
20260507053515 45 0.0 0.0 0.00 0.38 0.00 82 1014.4
20260507052516 45 0.0 0.0 0.00 0.39 0.00 82 1014.4
20260507051536 46 0.0 0.0 0.00 0.39 0.00 80 1014.5
20260507050515 46 0.0 0.0 0.00 0.40 0.00 80 1014.5
20260507045515 46 0.0 0.0 0.00 0.42 0.00 79 1014.4
20260507044536 46 0.0 0.0 0.00 0.45 0.00 78 1014.4
20260507043535 46 0.0 0.0 0.00 0.46 0.00 78 1014.4
20260507042516 47 0.0 0.0 0.00 0.48 0.00 77 1014.4
20260507041515 47 0.0 0.0 0.00 0.49 0.00 76 1014.5
20260507040516 48 0.0 0.0 0.00 0.50 0.00 76 1014.5
20260507035516 49 0.0 0.0 0.00 0.50 0.50 74 1014.5
20260507034516 49 0.0 0.0 0.00 0.51 0.50 74 1014.5
20260507033516 49 0.0 0.0 0.00 0.53 0.50 73 1014.6
20260507032516 50 0.0 0.0 0.00 0.54 0.50 72 1014.6
20260507031557 50 0.0 0.0 0.00 0.54 0.50 72 1014.6
20260507030516 51 0.0 1.0 0.00 0.55 0.50 71 1014.4
20260507025516 51 283 0.0 1.0 0.00 0.55 0.50 69 1014.3
20260507024516 51 284 0.0 5.0 0.00 0.56 0.50 67 1014.2
20260507023516 51 272 1.0 4.0 0.00 0.56 0.50 70 1014.3
20260507022516 51 287 1.0 4.0 0.00 0.57 0.50 73 1014.1
20260507021517 51 264 1.0 4.0 0.00 0.57 0.50 75 1014.0
20260507020536 51 284 0.0 1.0 0.00 0.57 0.50 74 1013.8
20260507015516 50 0.0 0.0 0.00 0.57 0.50 72 1013.6
20260507014516 51 0.0 0.0 0.00 0.58 0.50 71 1013.4
20260507013517 51 0.0 0.0 0.00 0.58 0.50 69 1013.4
20260507012516 51 0.0 1.0 0.00 0.58 0.50 69 1013.1
20260507011516 52 0.0 1.0 0.00 0.58 0.50 69 1013.0
20260507010537 52 0.0 0.0 0.00 0.58 0.50 69 1012.9
20260507005516 53 0.0 1.0 0.00 0.58 0.50 68 1012.9
20260507004517 54 284 0.0 2.0 0.00 0.59 0.50 64 1012.8
20260507003536 54 276 1.0 2.0 0.00 0.59 0.50 61 1012.8
20260507002516 54 283 1.0 3.0 0.00 0.61 0.50 62 1012.7
20260507001516 55 286 1.0 5.0 0.00 0.63 0.50 61 1012.7
20260507000516 55 280 1.0 4.0 0.00 0.63 0.50 62 1012.7
20260506235516 55 281 1.0 3.0 0.00 0.63 0.50 62 1012.9
20260506234556 55 279 1.0 3.0 0.00 0.65 0.50 62 1012.9
20260506233557 55 274 0.0 2.0 0.00 0.66 0.50 61 1012.9
20260506232536 56 262 0.0 1.0 0.00 0.66 0.50 64 1012.8
20260506231516 56 249 1.0 4.0 0.00 0.66 0.50 60 1012.9
20260506230516 56 277 1.0 6.0 0.00 0.66 0.50 59 1012.8
20260506225536 56 277 2.0 4.0 0.00 0.66 0.50 58 1012.7
20260506224536 56 281 2.0 5.0 0.00 0.66 0.50 57 1012.6
20260506223516 57 286 2.0 4.0 0.00 0.66 0.50 58 1012.5
20260506222536 57 277 1.0 4.0 0.00 0.66 0.50 57 1012.3
20260506221616 57 289 1.0 5.0 0.00 0.66 0.50 55 1012.3
20260506220516 57 279 1.0 4.0 0.00 0.66 0.50 58 1012.0
20260506215516 57 275 1.0 6.0 0.00 0.66 0.50 55 1012.0
20260506214517 57 278 2.0 4.0 0.00 0.66 0.50 55 1011.9
20260506213516 57 279 2.0 5.0 0.00 0.66 0.50 54 1011.9
20260506212516 58 273 2.0 6.0 0.00 0.66 0.50 54 1011.8
20260506211537 58 269 2.0 6.0 0.00 0.66 0.50 54 1011.7
20260506210516 58 278 3.0 7.0 0.00 0.66 0.50 56 1011.6
20260506205516 58 268 2.0 6.0 0.00 0.66 0.50 55 1011.4
20260506204516 58 273 2.0 6.0 0.00 0.66 0.50 56 1011.5
20260506203517 58 270 2.0 8.0 0.00 0.66 0.50 56 1011.5
20260506202517 58 288 3.0 7.0 0.00 0.66 0.50 55 1011.6
20260506201516 59 284 4.0 8.0 0.00 0.66 0.50 55 1011.6
20260506200517 59 284 3.0 7.0 0.00 0.66 0.50 54 1011.6